EHI
2 2 2 3 3 3 3 2 1 0 0 0 0 0 0 0 0 0 2 4 8 15 20 19 17 12 6 2 2 4 5 3 2 2 1 0 0 0 0 0 0 0 0
2 2 2 2 2 2 2 2 1 1 0 0 0 0 0 0 0 0 1 2 5 10 15 15 13 9 5 3 2 3 3 2 1 2 2 1 0 0 0 0 0 0 0
1 2 2 2 1 1 1 1 2 1 0 0 0 0 0 0 0 0 0 0 1 4 8 10 9 6 4 3 4 3 2 1 1 3 3 1 0 0 0 0 0 0 0
1 3 4 3 2 1 0 1 1 1 0 0 0 0 0 0 0 0 0 0 0 1 3 5 6 5 4 4 4 3 2 2 2 3 3 2 1 0 0 0 0 0 0
3 4 6 6 5 2 0 0 0 0 0 0 0 0 0 0 0 0 1 0 0 0 0 2 3 3 4 4 3 4 4 4 3 3 3 3 2 1 0 0 0 0 0
4 5 6 6 5 2 0 0 0 0 0 0 0 0 0 0 0 0 0 0 0 0 0 0 1 1 2 2 2 3 4 3 3 3 3 3 3 2 1 0 0 0 0
4 4 5 4 3 1 0 0 0 0 0 0 0 0 0 0 0 0 0 0 0 1 0 0 0 0 0 0 1 2 3 2 1 2 3 3 4 3 2 1 0 0 0
3 4 4 4 3 2 1 1 0 0 0 0 0 0 0 0 0 0 0 0 0 0 0 0 0 0 0 0 0 1 2 2 1 1 2 3 4 3 2 1 0 0 0
2 3 3 3 3 3 3 2 1 0 0 0 0 0 0 0 0 0 0 0 0 0 0 0 0 0 0 0 0 1 1 2 2 2 2 3 3 2 1 0 0 0 0
1 1 1 3 3 3 3 2 1 0 0 0 0 0 0 0 0 0 0 0 0 0 0 0 0 0 0 0 0 0 0 1 2 3 2 2 2 1 0 0 0 0 0
0 0 1 2 3 3 2 2 1 0 0 0 0 0 0 0 0 0 0 0 0 0 0 0 0 0 0 0 0 0 0 0 1 1 1 1 2 1 0 0 0 0 0
0 0 1 2 2 1 1 1 0 0 0 0 0 0 0 0 0 0 0 0 0 0 0 0 0 0 0 0 0 0 0 0 0 0 0 0 1 1 0 0 0 0 0
0 0 0 1 1 0 0 0 0 0 0 0 0 0 0 0 0 0 0 0 0 0 0 0 0 0 0 0 0 0 0 0 0 0 0 0 0 0 0 0 0 0 0
0 0 0 0 0 0 0 0 0 0 0 0 0 0 0 0 0 0 0 0 0 0 0 0 0 0 0 0 0 0 0 0 0 0 0 0 0 0 0 0 0 0 0
0 0 0 0 0 0 0 0 0 0 0 0 0 0 0 0 0 0 0 0 0 0 0 0 0 0 0 0 0 0 0 0 0 0 0 0 0 0 0 0 0 0 0
0 0 0 0 0 0 0 0 0 0 0 0 0 0 0 0 0 0 0 0 0 0 0 0 0 0 0 0 0 0 0 0 0 0 0 0 0 0 0 0 0 0 0
0 0 0 0 0 0 0 0 0 0 0 0 0 0 0 0 0 0 0 0 0 0 0 0 0 0 0 0 0 0 0 0 0 0 0 0 0 0 0 0 0 0 0
0 0 0 0 0 0 0 0 0 0 0 0 0 0 0 0 0 0 0 0 0 0 0 0 0 0 0 0 0 0 0 0 0 0 0 0 0 0 0 0 0 0 0
0 0 0 0 0 0 0 0 0 0 0 0 0 0 0 0 0 0 0 0 0 0 0 0 0 0 0 0 0 0 0 0 0 0 0 0 0 0 0 0 0 0 0
0 0 0 0 0 0 0 0 0 0 0 0 0 0 0 0 0 0 0 0 0 0 0 0 0 0 0 0 0 0 0 0 0 0 0 0 0 0 0 0 0 0 0
0 0 0 0 0 0 0 0 0 0 0 0 0 0 0 0 0 0 0 0 0 0 0 0 0 0 0 0 0 0 0 0 0 0 0 0 0 0 0 0 0 0 0
0 0 0 0 0 0 0 0 0 0 0 0 0 0 0 0 0 0 0 0 0 0 0 0 0 0 0 0 0 0 0 0 0 0 0 0 0 0 0 0 0 0 0
0 0 0 0 0 0 0 0 0 0 0 0 0 0 0 0 0 0 0 0 0 0 0 0 0 0 0 0 0 0 0 0 0 0 0 0 0 0 0 0 0 0 0
0 0 0 0 0 0 0 0 0 0 0 0 0 0 0 0 0 0 0 0 0 0 0 0 0 0 0 0 0 0 0 0 0 0 0 0 0 0 0 0 0 0 0
0 0 0 0 0 0 0 0 0 0 0 0 0 0 0 0 0 0 0 0 0 0 0 0 0 0 0 0 0 0 0 0 0 0 0 0 0 0 0 0 0 0 0
0 0 0 0 0 0 0 0 0 0 0 0 0 0 0 0 0 0 0 0 0 0 0 0 0 0 0 0 0 0 0 0 0 0 0 0 0 0 0 0 0 0 0
Wind_Speed
2 2 2 2 1 1 1 1 1 2 2 3 2 2 2 3 3 3 3 8 9 10 11 12 12 12 11 11 11 10 10 11 11 11 10 10 10 10 10 10 9 9 9
2 2 2 2 2 2 2 2 1 2 2 2 2 2 2 2 3 3 3 5 8 8 9 10 11 11 11 11 10 10 10 10 11 11 11 11 11 11 11 10 10 9 9
2 2 2 2 2 1 1 1 1 1 1 1 1 1 1 1 2 3 3 2 3 7 8 8 9 9 10 11 10 10 10 10 10 10 11 12 11 11 11 11 10 10 10
1 1 2 2 2 1 1 1 1 0 1 0 1 1 1 1 2 2 2 2 2 3 5 7 8 8 9 10 10 10 10 10 10 10 10 11 11 11 11 11 11 11 10
1 1 1 1 2 2 1 2 1 1 1 1 1 1 1 1 2 2 2 2 2 2 1 3 5 6 6 7 8 9 10 10 10 10 10 11 11 11 12 12 12 11 11
1 1 1 1 2 1 1 1 1 1 1 1 0 1 1 2 1 1 2 1 1 1 1 0 0 1 1 1 3 5 7 8 8 9 11 11 10 11 12 13 12 12 12
1 1 1 1 1 1 1 2 1 1 1 1 1 1 2 1 1 1 0 1 1 2 2 1 1 1 1 1 1 1 3 5 6 7 8 8 9 10 10 12 12 12 12
1 1 1 1 0 0 0 0 0 0 1 1 1 1 1 2 2 2 1 1 2 2 2 2 2 2 1 1 2 1 1 2 4 5 6 6 7 9 10 11 11 11 11
1 1 1 1 0 1 0 0 1 1 1 1 1 2 2 2 1 2 2 2 2 2 1 2 2 2 2 1 1 1 1 1 1 3 5 6 7 8 9 10 11 11 10
1 1 1 0 1 0 1 0 0 1 1 1 1 1 2 2 2 1 1 2 2 2 2 2 2 2 2 1 2 3 3 2 1 3 5 6 7 8 9 10 11 11 11
2 2 2 0 0 0 0 0 0 1 1 1 1 1 1 1 1 2 1 0 2 2 2 1 1 1 2 2 1 3 4 3 2 3 5 6 7 8 8 9 10 10 10
2 3 2 1 1 0 0 0 0 0 0 0 1 1 1 1 1 2 2 1 0 1 1 2 1 1 2 2 2 5 6 5 5 4 5 6 7 7 8 9 10 10 11
2 2 2 2 1 1 1 0 0 0 0 0 1 1 1 1 1 2 2 2 1 0 1 1 1 1 2 2 2 5 6 7 7 7 7 6 7 8 8 9 9 10 9
1 1 1 2 2 2 1 0 0 0 0 0 0 1 1 1 1 2 3 3 2 0 0 0 1 1 1 2 3 5 4 7 8 8 8 8 8 8 8 8 8 8 9
1 2 2 2 2 2 1 1 1 0 0 0 0 1 1 1 1 1 1 3 4 3 2 1 1 1 1 2 3 3 3 6 8 8 8 8 9 9 9 9 9 9 8
2 2 2 2 2 2 1 1 1 1 1 1 0 1 1 1 0 1 1 1 2 3 2 1 1 1 1 2 4 3 3 6 7 7 8 8 8 8 8 9 8 8 8
2 2 2 2 2 2 1 1 1 1 1 2 1 1 1 1 0 0 1 1 1 2 3 1 1 2 2 3 3 3 3 3 3 6 7 7 7 7 7 7 7 7 6
2 2 2 2 2 2 2 2 2 2 2 2 2 2 1 1 1 0 1 2 2 2 3 3 1 1 2 3 3 4 3 3 2 4 5 5 5 5 5 5 5 5 5
3 3 2 2 3 3 3 2 2 2 2 2 2 2 1 1 1 0 1 2 2 2 3 4 3 2 2 2 3 3 3 2 2 3 3 3 3 4 3 4 4 4 4
2 3 3 3 3 3 3 2 2 2 2 2 2 2 1 1 1 1 2 2 3 4 4 5 4 3 2 2 3 3 2 1 1 1 1 1 2 2 3 3 4 5 5
3 3 3 3 3 3 3 3 2 3 3 3 3 3 3 3 2 2 2 3 4 4 4 5 4 3 2 2 2 2 2 1 1 0 0 1 0 1 2 3 5 6 7
3 3 3 3 4 3 3 4 3 2 2 2 2 3 3 4 5 6 6 5 5 6 6 4 3 4 3 3 2 3 3 2 0 1 1 1 1 2 3 3 6 8 8
3 3 3 3 3 4 5 4 3 2 2 2 2 3 3 4 4 4 6 7 6 5 5 5 5 4 4 4 5 4 3 2 2 2 2 1 1 2 3 4 8 9 10
2 2 2 2 3 4 5 4 4 3 3 3 3 2 3 3 4 4 5 5 4 4 2 3 4 4 4 5 5 5 4 2 0 0 2 1 1 2 2 3 6 9 10
2 2 1 2 3 3 5 4 4 3 3 3 3 3 3 3 4 5 5 5 4 3 3 4 4 4 5 6 5 4 3 3 1 1 1 2 1 1 2 3 4 7 9
1 2 2 2 3 3 5 5 5 3 3 2 3 3 4 4 4 5 4 4 4 2 2 3 4 4 3 2 3 4 4 3 2 1 2 2 1 0 2 3 2 3 4
Wind_Direction
171 175 191 187 177 207 211 234 235 245 251 264 250 229 221 219 211 203 217 215 213 214 210 205 203 200 199 199 199 200 201 203 202 197 196 193 190 186 181 176 174 172 170
177 176 181 185 179 204 212 209 219 241 252 257 255 224 214 203 211 210 216 217 212 210 209 207 205 204 204 204 205 205 204 203 201 200 198 195 191 187 183 180 178 175 172
180 170 176 189 184 187 205 213 233 234 250 265 291 262 214 197 201 212 212 212 214 217 214 212 210 209 210 209 209 211 209 204 201 201 200 198 194 190 185 181 178 175 171
157 142 162 193 171 159 184 205 213 238 280 291 310 298 275 241 224 214 202 203 208 217 217 217 215 215 215 215 215 215 215 212 208 205 203 199 194 191 186 182 180 177 175
161 148 159 186 158 163 184 206 194 203 226 248 266 282 280 261 240 220 207 198 200 204 207 220 217 219 222 224 222 220 220 219 216 212 209 202 197 192 189 185 182 181 179
82 109 139 170 151 155 188 208 203 213 209 207 292 314 285 271 265 221 212 190 159 134 126 113 183 247 227 233 231 228 224 221 217 215 211 206 198 191 191 187 184 183 181
57 73 78 50 130 161 189 210 200 213 235 158 80 349 333 325 328 277 191 133 111 109 99 90 74 42 341 335 346 250 228 222 219 216 211 204 197 189 188 188 187 187 181
47 84 86 63 34 98 84 254 196 250 256 172 137 118 336 345 353 4 52 107 99 88 84 77 54 49 36 17 351 338 274 228 216 213 199 186 183 184 186 183 181 178 173
48 43 66 98 98 119 124 225 222 210 235 273 185 166 167 222 307 355 30 62 82 77 79 73 63 42 39 34 358 338 18 9 185 179 175 177 175 177 181 179 176 173 170
31 30 357 77 67 66 88 284 285 245 196 259 282 232 204 178 178 268 0 25 55 61 53 60 58 49 41 28 16 41 65 62 134 172 173 175 175 172 172 172 172 174 172
353 2 5 19 42 359 356 284 280 252 213 217 221 232 237 224 188 178 230 339 37 33 38 54 62 54 39 30 36 63 74 70 100 146 163 167 168 169 167 168 169 168 166
356 11 3 26 15 12 28 334 2 15 301 246 231 213 196 202 201 178 192 189 135 27 29 40 55 56 48 37 54 70 72 75 86 102 124 141 153 160 161 158 157 153 150
355 349 9 5 358 346 333 53 50 308 268 242 221 236 236 228 201 179 166 166 155 126 59 39 37 58 61 53 53 69 71 77 82 87 96 109 121 127 133 136 141 143 146
318 332 7 2 351 348 359 46 41 296 305 252 291 253 246 249 189 175 169 157 152 163 118 150 34 56 70 70 63 67 75 82 84 83 84 92 102 110 116 122 127 130 134
352 7 13 12 1 358 4 31 39 309 35 256 272 273 251 250 209 172 169 170 163 175 197 182 123 60 85 78 74 75 80 83 86 85 89 93 96 99 105 107 111 115 119
16 16 17 16 9 11 29 43 21 359 42 344 306 326 305 280 244 124 157 176 176 165 170 167 154 121 107 98 93 88 84 93 92 94 96 97 98 100 106 112 115 118 120
20 22 11 13 19 22 26 50 19 19 27 359 347 1 311 275 213 201 162 153 149 142 149 138 90 96 97 110 97 83 80 77 88 95 100 102 104 105 107 112 117 122 128
14 17 22 26 26 29 29 42 26 25 38 20 359 7 351 18 34 218 165 153 156 151 143 145 124 107 103 128 113 100 89 86 84 88 93 102 109 113 118 124 128 133 139
13 19 33 33 29 29 34 39 47 44 39 30 15 17 11 51 32 75 123 134 136 128 123 136 130 109 104 116 102 91 87 71 89 105 103 111 125 135 144 151 156 164 171
27 28 33 41 38 35 36 35 42 47 45 33 21 23 31 61 121 127 123 126 121 115 118 123 123 117 109 105 108 112 91 52 56 88 100 139 154 171 185 191 196 200 204
37 44 49 36 35 40 37 40 40 57 52 38 29 31 41 53 85 105 129 134 131 129 126 127 131 123 129 136 145 138 122 89 9 341 48 289 209 245 241 228 224 220 219
35 46 46 38 30 26 37 43 58 61 56 53 42 31 44 47 67 81 99 118 137 142 142 138 139 146 155 153 138 137 130 116 275 251 154 269 187 239 249 234 229 226 227
46 45 35 43 32 23 37 46 62 71 62 57 51 46 60 60 62 76 82 86 90 108 137 147 150 159 164 171 153 143 155 164 205 207 135 277 261 248 250 241 233 231 233
56 46 33 35 35 22 28 40 65 60 60 56 57 65 73 60 67 82 85 77 71 69 101 136 158 170 171 166 160 157 163 150 355 297 140 197 269 257 265 258 250 241 240
53 37 24 37 41 13 20 41 70 72 67 50 50 64 78 79 81 92 91 86 71 50 65 107 133 143 149 152 148 125 121 109 64 297 183 171 252 284 292 275 261 248 245
63 46 37 31 41 24 25 51 72 83 75 53 41 48 63 82 90 99 105 104 99 81 84 86 83 86 104 132 159 158 157 148 157 250 234 167 220 141 316 290 274 264 254